This is the latest recevied weather packets stored in our database for station/object vk4zu-13. If no packets are shown the sender has not sent any weather packets the latest 10 day(s).
| Time | Temp. | Humidity | Pressure | Rain* | Wind** | Luminosity | Snow |
|---|---|---|---|---|---|---|---|
| 1778297030 | 24.44° C | 46% | 1021.7 hPa | 0 mm | - | 642 W/m² | - |
| 1778296965 | 24.44° C | 50% | 1021.7 hPa | 0 mm | - | 642 W/m² | - |
| 1778296904 | 24.44° C | 46% | 1021.6 hPa | 0 mm | - | 647 W/m² | - |
| 1778296835 | 24.44° C | 47% | 1021.7 hPa | 0 mm | - | 652 W/m² | - |
| 1778296769 | 24.44° C | 50% | 1021.7 hPa | 0 mm | - | 656 W/m² | - |
| 1778296710 | 24.44° C | 48% | 1021.7 hPa | 0 mm | - | 659 W/m² | - |
| 1778296649 | 24.44° C | 48% | 1021.6 hPa | 0 mm | - | 663 W/m² | - |
| 1778296587 | 23.89° C | 48% | 1021.7 hPa | 0 mm | - | 675 W/m² | - |
| 1778296526 | 23.89° C | 48% | 1021.6 hPa | 0 mm | - | 682 W/m² | - |
| 1778296466 | 23.89° C | 49% | 1021.7 hPa | 0 mm | - | 689 W/m² | - |
| 1778296411 | 23.89° C | 49% | 1021.7 hPa | 0 mm | - | 694 W/m² | - |
| 1778296346 | 23.33° C | 50% | 1021.7 hPa | 0 mm | - | 705 W/m² | - |
| 1778296279 | 23.33° C | 51% | 1021.7 hPa | 0 mm | - | 712 W/m² | - |
| 1778296220 | 23.33° C | 50% | 1021.8 hPa | 0 mm | - | 721 W/m² | - |
| 1778296160 | 23.33° C | 52% | 1021.8 hPa | 0 mm | - | 735 W/m² | - |
| 1778296099 | 22.78° C | 51% | 1021.8 hPa | 0 mm | - | 735 W/m² | - |
| 1778296038 | 22.78° C | 52% | 1021.7 hPa | 0 mm | - | 680 W/m² | - |
| 1778295968 | 22.78° C | 53% | 1021.8 hPa | 0 mm | - | 165 W/m² | - |
| 1778295903 | 22.78° C | 50% | 1021.8 hPa | 0 mm | - | 165 W/m² | - |
| 1778295842 | 22.78° C | 50% | 1021.8 hPa | 0 mm | - | 165 W/m² | - |
| 1778295787 | 22.78° C | 50% | 1021.9 hPa | 0 mm | - | 109 W/m² | - |
| 1778295715 | 23.33° C | 51% | 1021.9 hPa | 0 mm | - | 209 W/m² | - |
| 1778295645 | 23.33° C | 49% | 1021.9 hPa | 0 mm | - | 113 W/m² | - |
| 1778295580 | 23.33° C | 49% | 1021.9 hPa | 0 mm | - | 113 W/m² | - |
| 1778295518 | 23.89° C | 51% | 1021.9 hPa | 0 mm | - | 132 W/m² | - |
* Rain latest hour (hover to see other rain measurements)
** Current wind speed in m/s (hover to see current wind gust speed)